Date_Time,Julian_Date,Latitude,Longitude,Instrument_Depth,U,V,Speed,Direction
(yyyy-mm-dd hh:mn:ss UTC),(JD),(+ deg. North),(+ deg. East),(m),(cm/s),(cm/s),(cm/s),(deg True)
1982-12-14 18:30:00 UTC,2445318.270833,28.7317,-95.2428,0109,-23.84,-12.68,27.0000,242.0000
1982-12-14 19:00:00 UTC,2445318.291667,28.7317,-95.2428,0109,-24.49,-13.57,28.0000,241.0000
1982-12-14 19:30:00 UTC,2445318.312500,28.7317,-95.2428,0109,-24.72,-13.15,28.0000,242.0000
1982-12-14 20:00:00 UTC,2445318.333333,28.7317,-95.2428,0109,-24.67,-10.98,27.0000,246.0000
1982-12-14 20:30:00 UTC,2445318.354167,28.7317,-95.2428,0109,-25.77,-10.94,28.0000,247.0000
1982-12-14 21:00:00 UTC,2445318.375000,28.7317,-95.2428,0109,-26.28,-12.26,29.0000,245.0000
1982-12-14 21:30:00 UTC,2445318.395833,28.7317,-95.2428,0109,-23.61,-13.09,27.0000,241.0000
1982-12-14 22:00:00 UTC,2445318.416667,28.7317,-95.2428,0109,-21.55,-14.54,26.0000,236.0000
1982-12-14 22:30:00 UTC,2445318.437500,28.7317,-95.2428,0109,-22.36,-16.85,28.0000,233.0000
1982-12-14 23:00:00 UTC,2445318.458333,28.7317,-95.2428,0109,-22.54,-18.25,29.0000,231.0000
1982-12-14 23:30:00 UTC,2445318.479167,28.7317,-95.2428,0109,-23.31,-18.88,30.0000,231.0000
1982-12-15 00:00:00 UTC,2445318.500000,28.7317,-95.2428,0109,-23.64,-18.47,30.0000,232.0000
1982-12-15 00:30:00 UTC,2445318.520833,28.7317,-95.2428,0109,-24.27,-17.63,30.0000,234.0000
1982-12-15 01:00:00 UTC,2445318.541667,28.7317,-95.2428,0109,-25.16,-16.34,30.0000,237.0000
1982-12-15 01:30:00 UTC,2445318.562500,28.7317,-95.2428,0109,-25.71,-15.45,30.0000,239.0000
1982-12-15 02:00:00 UTC,2445318.583333,28.7317,-95.2428,0109,-24.59,-15.37,29.0000,238.0000
1982-12-15 02:30:00 UTC,2445318.604167,28.7317,-95.2428,0109,-24.32,-15.79,29.0000,237.0000
1982-12-15 03:00:00 UTC,2445318.625000,28.7317,-95.2428,0109,-24.04,-16.22,29.0000,236.0000
1982-12-15 03:30:00 UTC,2445318.645833,28.7317,-95.2428,0109,-24.04,-16.22,29.0000,236.0000
1982-12-15 04:00:00 UTC,2445318.666667,28.7317,-95.2428,0109,-24.04,-16.22,29.0000,236.0000
1982-12-15 04:30:00 UTC,2445318.687500,28.7317,-95.2428,0109,-24.25,-14.00,28.0000,240.0000
1982-12-15 05:00:00 UTC,2445318.708333,28.7317,-95.2428,0109,-22.47,-10.96,25.0000,244.0000
1982-12-15 05:30:00 UTC,2445318.729167,28.7317,-95.2428,0109,-21.17,-8.99,23.0000,247.0000
1982-12-15 06:00:00 UTC,2445318.750000,28.7317,-95.2428,0109,-20.10,-8.95,22.0000,246.0000
1982-12-15 06:30:00 UTC,2445318.770833,28.7317,-95.2428,0109,-20.85,-9.72,23.0000,245.0000
1982-12-15 07:00:00 UTC,2445318.791667,28.7317,-95.2428,0109,-20.85,-9.72,23.0000,245.0000
1982-12-15 07:30:00 UTC,2445318.812500,28.7317,-95.2428,0109,-20.10,-8.95,22.0000,246.0000
1982-12-15 08:00:00 UTC,2445318.833333,28.7317,-95.2428,0109,-19.73,-7.18,21.0000,250.0000
1982-12-15 08:30:00 UTC,2445318.854167,28.7317,-95.2428,0109,-20.28,-5.44,21.0000,255.0000
1982-12-15 09:00:00 UTC,2445318.875000,28.7317,-95.2428,0109,-21.44,-4.95,22.0000,257.0000
1982-12-15 09:30:00 UTC,2445318.895833,28.7317,-95.2428,0109,-21.52,-4.57,22.0000,258.0000
1982-12-15 10:00:00 UTC,2445318.916667,28.7317,-95.2428,0109,-20.68,-3.65,21.0000,260.0000
1982-12-15 10:30:00 UTC,2445318.937500,28.7317,-95.2428,0109,-19.75,-3.13,20.0000,261.0000
1982-12-15 11:00:00 UTC,2445318.958333,28.7317,-95.2428,0109,-19.81,-2.78,20.0000,262.0000
1982-12-15 11:30:00 UTC,2445318.979167,28.7317,-95.2428,0109,-19.81,-2.78,20.0000,262.0000
1982-12-15 12:00:00 UTC,2445319.000000,28.7317,-95.2428,0109,-21.79,-3.06,22.0000,262.0000
1982-12-15 12:30:00 UTC,2445319.020833,28.7317,-95.2428,0109,-23.77,-3.34,24.0000,262.0000
1982-12-15 13:00:00 UTC,2445319.041667,28.7317,-95.2428,0109,-24.86,-2.61,25.0000,264.0000
1982-12-15 13:30:00 UTC,2445319.062500,28.7317,-95.2428,0109,-25.98,-0.91,26.0000,268.0000
1982-12-15 14:00:00 UTC,2445319.083333,28.7317,-95.2428,0109,-25.90,2.27,26.0000,275.0000
1982-12-15 14:30:00 UTC,2445319.104167,28.7317,-95.2428,0109,-22.41,5.17,23.0000,283.0000
1982-12-15 15:00:00 UTC,2445319.125000,28.7317,-95.2428,0109,-19.03,8.87,21.0000,295.0000
1982-12-15 15:30:00 UTC,2445319.145833,28.7317,-95.2428,0109,-13.79,11.57,18.0000,310.0000
1982-12-15 16:00:00 UTC,2445319.166667,28.7317,-95.2428,0109,-9.01,14.42,17.0000,328.0000
1982-12-15 16:30:00 UTC,2445319.187500,28.7317,-95.2428,0109,-3.60,15.59,16.0000,347.0000
1982-12-15 17:00:00 UTC,2445319.208333,28.7317,-95.2428,0109,0.63,17.99,18.0000,2.0000
1982-12-15 17:30:00 UTC,2445319.229167,28.7317,-95.2428,0109,3.63,18.65,19.0000,11.0000
1982-12-15 18:00:00 UTC,2445319.250000,28.7317,-95.2428,0109,6.51,18.91,20.0000,19.0000
1982-12-15 18:30:00 UTC,2445319.270833,28.7317,-95.2428,0109,9.64,19.77,22.0000,26.0000
1982-12-15 19:00:00 UTC,2445319.291667,28.7317,-95.2428,0109,11.15,20.12,23.0000,29.0000
1982-12-15 19:30:00 UTC,2445319.312500,28.7317,-95.2428,0109,12.19,19.51,23.0000,32.0000
1982-12-15 20:00:00 UTC,2445319.333333,28.7317,-95.2428,0109,13.84,18.37,23.0000,37.0000
1982-12-15 20:30:00 UTC,2445319.354167,28.7317,-95.2428,0109,15.39,17.09,23.0000,42.0000
1982-12-15 21:00:00 UTC,2445319.375000,28.7317,-95.2428,0109,15.56,15.56,22.0000,45.0000
1982-12-15 21:30:00 UTC,2445319.395833,28.7317,-95.2428,0109,15.36,14.32,21.0000,47.0000
1982-12-15 22:00:00 UTC,2445319.416667,28.7317,-95.2428,0109,14.77,11.96,19.0000,51.0000
1982-12-15 22:30:00 UTC,2445319.437500,28.7317,-95.2428,0109,13.75,9.99,17.0000,54.0000
1982-12-15 23:00:00 UTC,2445319.458333,28.7317,-95.2428,0109,12.29,8.60,15.0000,55.0000
1982-12-15 23:30:00 UTC,2445319.479167,28.7317,-95.2428,0109,11.32,9.84,15.0000,49.0000
1982-12-16 00:00:00 UTC,2445319.500000,28.7317,-95.2428,0109,9.03,11.98,15.0000,37.0000
1982-12-16 00:30:00 UTC,2445319.520833,28.7317,-95.2428,0109,7.21,12.00,14.0000,31.0000
1982-12-16 01:00:00 UTC,2445319.541667,28.7317,-95.2428,0109,7.62,11.74,14.0000,33.0000
1982-12-16 01:30:00 UTC,2445319.562500,28.7317,-95.2428,0109,9.51,8.87,13.0000,47.0000
1982-12-16 02:00:00 UTC,2445319.583333,28.7317,-95.2428,0109,10.40,3.58,11.0000,71.0000
1982-12-16 02:30:00 UTC,2445319.604167,28.7317,-95.2428,0109,10.00,-0.17,10.0000,91.0000
1982-12-16 03:00:00 UTC,2445319.625000,28.7317,-95.2428,0109,5.74,1.75,6.0000,73.0000
1982-12-16 03:30:00 UTC,2445319.645833,28.7317,-95.2428,0109,4.09,4.39,6.0000,43.0000
1982-12-16 04:00:00 UTC,2445319.666667,28.7317,-95.2428,0109,6.18,3.29,7.0000,62.0000
1982-12-16 04:30:00 UTC,2445319.687500,28.7317,-95.2428,0109,7.36,3.13,8.0000,67.0000
1982-12-16 05:00:00 UTC,2445319.708333,28.7317,-95.2428,0109,3.61,4.79,6.0000,37.0000
1982-12-16 05:30:00 UTC,2445319.729167,28.7317,-95.2428,0109,0.44,4.98,5.0000,5.0000
1982-12-16 06:00:00 UTC,2445319.750000,28.7317,-95.2428,0109,3.06,2.57,4.0000,50.0000
1982-12-16 06:30:00 UTC,2445319.770833,28.7317,-95.2428,0109,4.94,0.78,5.0000,81.0000
1982-12-16 07:00:00 UTC,2445319.791667,28.7317,-95.2428,0109,-0.93,2.85,3.0000,342.0000
1982-12-16 07:30:00 UTC,2445319.812500,28.7317,-95.2428,0109,-5.12,4.77,7.0000,313.0000
1982-12-16 08:00:00 UTC,2445319.833333,28.7317,-95.2428,0109,-4.32,4.17,6.0000,314.0000
1982-12-16 08:30:00 UTC,2445319.854167,28.7317,-95.2428,0109,-2.88,0.83,3.0000,286.0000
1982-12-16 09:00:00 UTC,2445319.875000,28.7317,-95.2428,0109,-7.92,-1.11,8.0000,262.0000
1982-12-16 09:30:00 UTC,2445319.895833,28.7317,-95.2428,0109,-11.48,-3.51,12.0000,253.0000
1982-12-16 10:00:00 UTC,2445319.916667,28.7317,-95.2428,0109,-9.33,-7.55,12.0000,231.0000
1982-12-16 10:30:00 UTC,2445319.937500,28.7317,-95.2428,0109,-9.90,-9.90,14.0000,225.0000
1982-12-16 11:00:00 UTC,2445319.958333,28.7317,-95.2428,0109,-15.10,-9.80,18.0000,237.0000
1982-12-16 11:30:00 UTC,2445319.979167,28.7317,-95.2428,0109,-20.85,-9.72,23.0000,245.0000
1982-12-16 12:00:00 UTC,2445320.000000,28.7317,-95.2428,0109,-24.85,-10.55,27.0000,247.0000
1982-12-16 12:30:00 UTC,2445320.020833,28.7317,-95.2428,0109,-25.17,-12.27,28.0000,244.0000
1982-12-16 13:00:00 UTC,2445320.041667,28.7317,-95.2428,0109,-27.62,-14.07,31.0000,243.0000
1982-12-16 13:30:00 UTC,2445320.062500,28.7317,-95.2428,0109,-30.29,-15.44,34.0000,243.0000
1982-12-16 14:00:00 UTC,2445320.083333,28.7317,-95.2428,0109,-33.26,-16.22,37.0000,244.0000
1982-12-16 14:30:00 UTC,2445320.104167,28.7317,-95.2428,0109,-34.44,-16.06,38.0000,245.0000
1982-12-16 15:00:00 UTC,2445320.125000,28.7317,-95.2428,0109,-35.90,-15.24,39.0000,247.0000
1982-12-16 15:30:00 UTC,2445320.145833,28.7317,-95.2428,0109,-36.16,-14.61,39.0000,248.0000
1982-12-16 16:00:00 UTC,2445320.166667,28.7317,-95.2428,0109,-35.48,-13.62,38.0000,249.0000
1982-12-16 16:30:00 UTC,2445320.187500,28.7317,-95.2428,0109,-34.06,-14.46,37.0000,247.0000
1982-12-16 17:00:00 UTC,2445320.208333,28.7317,-95.2428,0109,-32.63,-15.21,36.0000,245.0000
1982-12-16 17:30:00 UTC,2445320.229167,28.7317,-95.2428,0109,-31.97,-14.24,35.0000,246.0000
1982-12-16 18:00:00 UTC,2445320.250000,28.7317,-95.2428,0109,-32.15,-11.07,34.0000,251.0000
1982-12-16 18:30:00 UTC,2445320.270833,28.7317,-95.2428,0109,-31.18,-7.20,32.0000,257.0000
1982-12-16 19:00:00 UTC,2445320.291667,28.7317,-95.2428,0109,-29.71,-4.18,30.0000,262.0000
1982-12-16 19:30:00 UTC,2445320.312500,28.7317,-95.2428,0109,-27.93,-1.95,28.0000,266.0000
1982-12-16 20:00:00 UTC,2445320.333333,28.7317,-95.2428,0109,-26.98,-0.94,27.0000,268.0000
1982-12-16 20:30:00 UTC,2445320.354167,28.7317,-95.2428,0109,-24.97,-1.31,25.0000,267.0000
1982-12-16 21:00:00 UTC,2445320.375000,28.7317,-95.2428,0109,-23.87,-2.51,24.0000,264.0000
1982-12-16 21:30:00 UTC,2445320.395833,28.7317,-95.2428,0109,-24.54,-4.77,25.0000,259.0000
1982-12-16 22:00:00 UTC,2445320.416667,28.7317,-95.2428,0109,-25.23,-6.29,26.0000,256.0000
1982-12-16 22:30:00 UTC,2445320.437500,28.7317,-95.2428,0109,-27.05,-7.25,28.0000,255.0000
1982-12-16 23:00:00 UTC,2445320.458333,28.7317,-95.2428,0109,-29.11,-7.26,30.0000,256.0000
1982-12-16 23:30:00 UTC,2445320.479167,28.7317,-95.2428,0109,-30.08,-7.50,31.0000,256.0000
1982-12-17 00:00:00 UTC,2445320.500000,28.7317,-95.2428,0109,-30.76,-8.82,32.0000,254.0000
1982-12-17 00:30:00 UTC,2445320.520833,28.7317,-95.2428,0109,-29.87,-11.47,32.0000,249.0000
1982-12-17 01:00:00 UTC,2445320.541667,28.7317,-95.2428,0109,-29.46,-12.50,32.0000,247.0000
1982-12-17 01:30:00 UTC,2445320.562500,28.7317,-95.2428,0109,-29.00,-13.52,32.0000,245.0000
1982-12-17 02:00:00 UTC,2445320.583333,28.7317,-95.2428,0109,-27.86,-13.59,31.0000,244.0000
1982-12-17 02:30:00 UTC,2445320.604167,28.7317,-95.2428,0109,-25.61,-13.61,29.0000,242.0000
1982-12-17 03:00:00 UTC,2445320.625000,28.7317,-95.2428,0109,-25.61,-13.61,29.0000,242.0000
1982-12-17 03:30:00 UTC,2445320.645833,28.7317,-95.2428,0109,-24.49,-13.57,28.0000,241.0000
1982-12-17 04:00:00 UTC,2445320.666667,28.7317,-95.2428,0109,-24.59,-15.37,29.0000,238.0000
1982-12-17 04:30:00 UTC,2445320.687500,28.7317,-95.2428,0109,-23.76,-16.63,29.0000,235.0000
1982-12-17 05:00:00 UTC,2445320.708333,28.7317,-95.2428,0109,-21.56,-16.25,27.0000,233.0000
1982-12-17 05:30:00 UTC,2445320.729167,28.7317,-95.2428,0109,-20.23,-14.69,25.0000,234.0000
1982-12-17 06:00:00 UTC,2445320.750000,28.7317,-95.2428,0109,-21.65,-12.50,25.0000,240.0000
1982-12-17 06:30:00 UTC,2445320.770833,28.7317,-95.2428,0109,-23.17,-11.80,26.0000,243.0000
1982-12-17 07:00:00 UTC,2445320.791667,28.7317,-95.2428,0109,-22.96,-12.21,26.0000,242.0000
1982-12-17 07:30:00 UTC,2445320.812500,28.7317,-95.2428,0109,-20.13,-13.07,24.0000,237.0000
1982-12-17 08:00:00 UTC,2445320.833333,28.7317,-95.2428,0109,-18.02,-12.62,22.0000,235.0000
1982-12-17 08:30:00 UTC,2445320.854167,28.7317,-95.2428,0109,-17.80,-12.93,22.0000,234.0000
1982-12-17 09:00:00 UTC,2445320.875000,28.7317,-95.2428,0109,-17.34,-13.54,22.0000,232.0000
1982-12-17 09:30:00 UTC,2445320.895833,28.7317,-95.2428,0109,-15.83,-15.28,22.0000,226.0000
1982-12-17 10:00:00 UTC,2445320.916667,28.7317,-95.2428,0109,-15.43,-18.39,24.0000,220.0000
1982-12-17 10:30:00 UTC,2445320.937500,28.7317,-95.2428,0109,-15.10,-22.38,27.0000,214.0000
1982-12-17 11:00:00 UTC,2445320.958333,28.7317,-95.2428,0109,-14.54,-26.24,30.0000,209.0000
1982-12-17 11:30:00 UTC,2445320.979167,28.7317,-95.2428,0109,-14.07,-27.62,31.0000,207.0000
1982-12-17 12:00:00 UTC,2445321.000000,28.7317,-95.2428,0109,-15.49,-29.14,33.0000,208.0000
1982-12-17 12:30:00 UTC,2445321.020833,28.7317,-95.2428,0109,-17.45,-31.49,36.0000,209.0000
1982-12-17 13:00:00 UTC,2445321.041667,28.7317,-95.2428,0109,-19.00,-32.91,38.0000,210.0000
1982-12-17 13:30:00 UTC,2445321.062500,28.7317,-95.2428,0109,-19.08,-30.53,36.0000,212.0000
1982-12-17 14:00:00 UTC,2445321.083333,28.7317,-95.2428,0109,-17.43,-26.84,32.0000,213.0000
1982-12-17 14:30:00 UTC,2445321.104167,28.7317,-95.2428,0109,-15.25,-23.48,28.0000,213.0000
1982-12-17 15:00:00 UTC,2445321.125000,28.7317,-95.2428,0109,-13.62,-20.97,25.0000,213.0000
1982-12-17 15:30:00 UTC,2445321.145833,28.7317,-95.2428,0109,-11.98,-18.45,22.0000,213.0000
1982-12-17 16:00:00 UTC,2445321.166667,28.7317,-95.2428,0109,-11.18,-16.58,20.0000,214.0000
1982-12-17 16:30:00 UTC,2445321.187500,28.7317,-95.2428,0109,-11.33,-13.99,18.0000,219.0000
1982-12-17 17:00:00 UTC,2445321.208333,28.7317,-95.2428,0109,-10.91,-11.70,16.0000,223.0000
1982-12-17 17:30:00 UTC,2445321.229167,28.7317,-95.2428,0109,-8.03,-8.92,12.0000,222.0000
1982-12-17 18:00:00 UTC,2445321.250000,28.7317,-95.2428,0109,-5.03,-6.22,8.0000,219.0000
1982-12-17 18:30:00 UTC,2445321.270833,28.7317,-95.2428,0109,-4.95,-4.95,7.0000,225.0000
1982-12-17 19:00:00 UTC,2445321.291667,28.7317,-95.2428,0109,-7.55,-4.90,9.0000,237.0000
1982-12-17 19:30:00 UTC,2445321.312500,28.7317,-95.2428,0109,-11.05,-4.69,12.0000,247.0000
1982-12-17 20:00:00 UTC,2445321.333333,28.7317,-95.2428,0109,-16.07,-5.53,17.0000,251.0000
1982-12-17 20:30:00 UTC,2445321.354167,28.7317,-95.2428,0109,-22.22,-5.95,23.0000,255.0000
1982-12-17 21:00:00 UTC,2445321.375000,28.7317,-95.2428,0109,-24.54,-4.77,25.0000,259.0000
1982-12-17 21:30:00 UTC,2445321.395833,28.7317,-95.2428,0109,-25.52,-4.96,26.0000,259.0000
1982-12-17 22:00:00 UTC,2445321.416667,28.7317,-95.2428,0109,-25.23,-6.29,26.0000,256.0000
1982-12-17 22:30:00 UTC,2445321.437500,28.7317,-95.2428,0109,-27.73,-8.48,29.0000,253.0000
1982-12-17 23:00:00 UTC,2445321.458333,28.7317,-95.2428,0109,-27.42,-9.44,29.0000,251.0000
1982-12-17 23:30:00 UTC,2445321.479167,28.7317,-95.2428,0109,-26.89,-10.86,29.0000,248.0000
1982-12-18 00:00:00 UTC,2445321.500000,28.7317,-95.2428,0109,-25.58,-11.39,28.0000,246.0000
1982-12-18 00:30:00 UTC,2445321.520833,28.7317,-95.2428,0109,-25.58,-11.39,28.0000,246.0000
1982-12-18 01:00:00 UTC,2445321.541667,28.7317,-95.2428,0109,-26.28,-12.26,29.0000,245.0000
1982-12-18 01:30:00 UTC,2445321.562500,28.7317,-95.2428,0109,-25.17,-12.27,28.0000,244.0000
1982-12-18 02:00:00 UTC,2445321.583333,28.7317,-95.2428,0109,-23.61,-13.09,27.0000,241.0000
1982-12-18 02:30:00 UTC,2445321.604167,28.7317,-95.2428,0109,-21.43,-12.88,25.0000,239.0000
1982-12-18 03:00:00 UTC,2445321.625000,28.7317,-95.2428,0109,-19.92,-11.50,23.0000,240.0000
1982-12-18 03:30:00 UTC,2445321.645833,28.7317,-95.2428,0109,-18.19,-10.50,21.0000,240.0000
1982-12-18 04:00:00 UTC,2445321.666667,28.7317,-95.2428,0109,-17.49,-9.70,20.0000,241.0000
1982-12-18 04:30:00 UTC,2445321.687500,28.7317,-95.2428,0109,-18.87,-9.21,21.0000,244.0000
1982-12-18 05:00:00 UTC,2445321.708333,28.7317,-95.2428,0109,-19.94,-9.30,22.0000,245.0000
1982-12-18 05:30:00 UTC,2445321.729167,28.7317,-95.2428,0109,-21.65,-12.50,25.0000,240.0000
1982-12-18 06:00:00 UTC,2445321.750000,28.7317,-95.2428,0109,-22.06,-17.24,28.0000,232.0000
1982-12-18 06:30:00 UTC,2445321.770833,28.7317,-95.2428,0109,-21.76,-17.62,28.0000,231.0000
1982-12-18 07:00:00 UTC,2445321.791667,28.7317,-95.2428,0109,-22.29,-13.39,26.0000,239.0000
1982-12-18 07:30:00 UTC,2445321.812500,28.7317,-95.2428,0109,-24.67,-10.98,27.0000,246.0000
1982-12-18 08:00:00 UTC,2445321.833333,28.7317,-95.2428,0109,-25.38,-11.83,28.0000,245.0000
1982-12-18 08:30:00 UTC,2445321.854167,28.7317,-95.2428,0109,-24.47,-11.41,27.0000,245.0000
1982-12-18 09:00:00 UTC,2445321.875000,28.7317,-95.2428,0109,-25.03,-10.11,27.0000,248.0000
1982-12-18 09:30:00 UTC,2445321.895833,28.7317,-95.2428,0109,-25.38,-11.83,28.0000,245.0000
1982-12-18 10:00:00 UTC,2445321.916667,28.7317,-95.2428,0109,-26.57,-15.97,31.0000,239.0000
1982-12-18 10:30:00 UTC,2445321.937500,28.7317,-95.2428,0109,-27.99,-17.49,33.0000,238.0000
1982-12-18 11:00:00 UTC,2445321.958333,28.7317,-95.2428,0109,-27.99,-17.49,33.0000,238.0000
1982-12-18 11:30:00 UTC,2445321.979167,28.7317,-95.2428,0109,-28.29,-17.00,33.0000,239.0000
1982-12-18 12:00:00 UTC,2445322.000000,28.7317,-95.2428,0109,-29.14,-17.51,34.0000,239.0000
1982-12-18 12:30:00 UTC,2445322.020833,28.7317,-95.2428,0109,-28.83,-18.02,34.0000,238.0000
1982-12-18 13:00:00 UTC,2445322.041667,28.7317,-95.2428,0109,-28.83,-18.02,34.0000,238.0000
1982-12-18 13:30:00 UTC,2445322.062500,28.7317,-95.2428,0109,-27.99,-17.49,33.0000,238.0000
1982-12-18 14:00:00 UTC,2445322.083333,28.7317,-95.2428,0109,-25.71,-15.45,30.0000,239.0000
1982-12-18 14:30:00 UTC,2445322.104167,28.7317,-95.2428,0109,-23.48,-15.25,28.0000,237.0000
1982-12-18 15:00:00 UTC,2445322.125000,28.7317,-95.2428,0109,-23.48,-15.25,28.0000,237.0000
1982-12-18 15:30:00 UTC,2445322.145833,28.7317,-95.2428,0109,-23.75,-14.84,28.0000,238.0000
1982-12-18 16:00:00 UTC,2445322.166667,28.7317,-95.2428,0109,-23.14,-13.91,27.0000,239.0000
1982-12-18 16:30:00 UTC,2445322.187500,28.7317,-95.2428,0109,-21.87,-12.12,25.0000,241.0000
1982-12-18 17:00:00 UTC,2445322.208333,28.7317,-95.2428,0109,-22.07,-11.74,25.0000,242.0000
1982-12-18 17:30:00 UTC,2445322.229167,28.7317,-95.2428,0109,-22.28,-11.35,25.0000,243.0000
1982-12-18 18:00:00 UTC,2445322.250000,28.7317,-95.2428,0109,-23.01,-9.77,25.0000,247.0000
1982-12-18 18:30:00 UTC,2445322.270833,28.7317,-95.2428,0109,-21.87,-7.11,23.0000,252.0000
1982-12-18 19:00:00 UTC,2445322.291667,28.7317,-95.2428,0109,-18.58,-3.95,19.0000,258.0000
1982-12-18 19:30:00 UTC,2445322.312500,28.7317,-95.2428,0109,-14.00,-0.24,14.0000,269.0000
1982-12-18 20:00:00 UTC,2445322.333333,28.7317,-95.2428,0109,-9.40,3.42,10.0000,290.0000
1982-12-18 20:30:00 UTC,2445322.354167,28.7317,-95.2428,0109,-4.02,5.73,7.0000,325.0000
1982-12-18 21:00:00 UTC,2445322.375000,28.7317,-95.2428,0109,-0.14,8.00,8.0000,359.0000
1982-12-18 21:30:00 UTC,2445322.395833,28.7317,-95.2428,0109,2.92,9.56,10.0000,17.0000
1982-12-18 22:00:00 UTC,2445322.416667,28.7317,-95.2428,0109,5.33,9.62,11.0000,29.0000
1982-12-18 22:30:00 UTC,2445322.437500,28.7317,-95.2428,0109,7.39,9.46,12.0000,38.0000
1982-12-18 23:00:00 UTC,2445322.458333,28.7317,-95.2428,0109,9.19,9.19,13.0000,45.0000
1982-12-18 23:30:00 UTC,2445322.479167,28.7317,-95.2428,0109,10.24,8.00,13.0000,52.0000
1982-12-19 00:00:00 UTC,2445322.500000,28.7317,-95.2428,0109,11.02,6.89,13.0000,58.0000
1982-12-19 00:30:00 UTC,2445322.520833,28.7317,-95.2428,0109,10.88,5.07,12.0000,65.0000
1982-12-19 01:00:00 UTC,2445322.541667,28.7317,-95.2428,0109,10.34,3.76,11.0000,70.0000
1982-12-19 01:30:00 UTC,2445322.562500,28.7317,-95.2428,0109,10.52,3.22,11.0000,73.0000
1982-12-19 02:00:00 UTC,2445322.583333,28.7317,-95.2428,0109,10.63,2.85,11.0000,75.0000
1982-12-19 02:30:00 UTC,2445322.604167,28.7317,-95.2428,0109,10.63,2.85,11.0000,75.0000
1982-12-19 03:00:00 UTC,2445322.625000,28.7317,-95.2428,0109,11.59,3.11,12.0000,75.0000
1982-12-19 03:30:00 UTC,2445322.645833,28.7317,-95.2428,0109,11.54,3.31,12.0000,74.0000
1982-12-19 04:00:00 UTC,2445322.666667,28.7317,-95.2428,0109,11.28,4.10,12.0000,70.0000
1982-12-19 04:30:00 UTC,2445322.687500,28.7317,-95.2428,0109,9.97,4.65,11.0000,65.0000
1982-12-19 05:00:00 UTC,2445322.708333,28.7317,-95.2428,0109,10.20,4.12,11.0000,68.0000
1982-12-19 05:30:00 UTC,2445322.729167,28.7317,-95.2428,0109,9.85,1.74,10.0000,80.0000
1982-12-19 06:00:00 UTC,2445322.750000,28.7317,-95.2428,0109,7.61,-2.47,8.0000,108.0000
1982-12-19 06:30:00 UTC,2445322.770833,28.7317,-95.2428,0109,5.03,-6.22,8.0000,141.0000
1982-12-19 07:00:00 UTC,2445322.791667,28.7317,-95.2428,0109,4.36,-7.87,9.0000,151.0000
1982-12-19 07:30:00 UTC,2445322.812500,28.7317,-95.2428,0109,4.64,-7.71,9.0000,149.0000
1982-12-19 08:00:00 UTC,2445322.833333,28.7317,-95.2428,0109,5.29,-7.28,9.0000,144.0000
1982-12-19 08:30:00 UTC,2445322.854167,28.7317,-95.2428,0109,5.54,-7.09,9.0000,142.0000
1982-12-19 09:00:00 UTC,2445322.875000,28.7317,-95.2428,0109,4.70,-6.47,8.0000,144.0000
1982-12-19 09:30:00 UTC,2445322.895833,28.7317,-95.2428,0109,3.00,-5.20,6.0000,150.0000
1982-12-19 10:00:00 UTC,2445322.916667,28.7317,-95.2428,0109,1.95,-4.60,5.0000,157.0000
1982-12-19 10:30:00 UTC,2445322.937500,28.7317,-95.2428,0109,1.87,-4.64,5.0000,158.0000
1982-12-19 11:00:00 UTC,2445322.958333,28.7317,-95.2428,0109,1.88,-3.53,4.0000,152.0000
1982-12-19 11:30:00 UTC,2445322.979167,28.7317,-95.2428,0109,1.00,-1.73,2.0000,150.0000
1982-12-19 12:00:00 UTC,2445323.000000,28.7317,-95.2428,0109,0.34,-0.94,1.0000,160.0000
1982-12-19 12:30:00 UTC,2445323.020833,28.7317,-95.2428,0109,0.00,-0.00,0.0000,151.0000
1982-12-19 13:00:00 UTC,2445323.041667,28.7317,-95.2428,0109,0.00,0.00,0.0000,43.0000
1982-12-19 13:30:00 UTC,2445323.062500,28.7317,-95.2428,0109,0.42,0.91,1.0000,25.0000
1982-12-19 14:00:00 UTC,2445323.083333,28.7317,-95.2428,0109,1.00,1.73,2.0000,30.0000
1982-12-19 14:30:00 UTC,2445323.104167,28.7317,-95.2428,0109,2.12,3.39,4.0000,32.0000
1982-12-19 15:00:00 UTC,2445323.125000,28.7317,-95.2428,0109,2.88,2.78,4.0000,46.0000
1982-12-19 15:30:00 UTC,2445323.145833,28.7317,-95.2428,0109,4.70,1.71,5.0000,70.0000
1982-12-19 16:00:00 UTC,2445323.166667,28.7317,-95.2428,0109,5.94,0.84,6.0000,82.0000
1982-12-19 16:30:00 UTC,2445323.187500,28.7317,-95.2428,0109,4.95,0.70,5.0000,82.0000
1982-12-19 17:00:00 UTC,2445323.208333,28.7317,-95.2428,0109,4.92,0.87,5.0000,80.0000
1982-12-19 17:30:00 UTC,2445323.229167,28.7317,-95.2428,0109,5.93,0.94,6.0000,81.0000
1982-12-19 18:00:00 UTC,2445323.250000,28.7317,-95.2428,0109,5.74,1.75,6.0000,73.0000
1982-12-19 18:30:00 UTC,2445323.270833,28.7317,-95.2428,0109,4.15,2.80,5.0000,56.0000
1982-12-19 19:00:00 UTC,2445323.291667,28.7317,-95.2428,0109,3.02,2.62,4.0000,49.0000
1982-12-19 19:30:00 UTC,2445323.312500,28.7317,-95.2428,0109,2.23,2.01,3.0000,48.0000
1982-12-19 20:00:00 UTC,2445323.333333,28.7317,-95.2428,0109,1.22,2.74,3.0000,24.0000
1982-12-19 20:30:00 UTC,2445323.354167,28.7317,-95.2428,0109,-0.78,2.90,3.0000,345.0000
1982-12-19 21:00:00 UTC,2445323.375000,28.7317,-95.2428,0109,-1.30,3.78,4.0000,341.0000
1982-12-19 21:30:00 UTC,2445323.395833,28.7317,-95.2428,0109,-0.49,3.97,4.0000,353.0000
1982-12-19 22:00:00 UTC,2445323.416667,28.7317,-95.2428,0109,-0.09,5.00,5.0000,359.0000
1982-12-19 22:30:00 UTC,2445323.437500,28.7317,-95.2428,0109,0.63,5.97,6.0000,6.0000
1982-12-19 23:00:00 UTC,2445323.458333,28.7317,-95.2428,0109,0.70,4.95,5.0000,8.0000
1982-12-19 23:30:00 UTC,2445323.479167,28.7317,-95.2428,0109,-0.07,4.00,4.0000,359.0000
1982-12-20 00:00:00 UTC,2445323.500000,28.7317,-95.2428,0109,-0.14,4.00,4.0000,358.0000
1982-12-20 00:30:00 UTC,2445323.520833,28.7317,-95.2428,0109,0.83,3.91,4.0000,12.0000
1982-12-20 01:00:00 UTC,2445323.541667,28.7317,-95.2428,0109,2.11,4.53,5.0000,25.0000
1982-12-20 01:30:00 UTC,2445323.562500,28.7317,-95.2428,0109,2.42,4.37,5.0000,29.0000
1982-12-20 02:00:00 UTC,2445323.583333,28.7317,-95.2428,0109,2.91,5.25,6.0000,29.0000
1982-12-20 02:30:00 UTC,2445323.604167,28.7317,-95.2428,0109,3.29,6.18,7.0000,28.0000
1982-12-20 03:00:00 UTC,2445323.625000,28.7317,-95.2428,0109,3.29,6.18,7.0000,28.0000
1982-12-20 03:30:00 UTC,2445323.645833,28.7317,-95.2428,0109,3.76,7.06,8.0000,28.0000
1982-12-20 04:00:00 UTC,2445323.666667,28.7317,-95.2428,0109,3.95,8.09,9.0000,26.0000
1982-12-20 04:30:00 UTC,2445323.687500,28.7317,-95.2428,0109,4.65,9.97,11.0000,25.0000
1982-12-20 05:00:00 UTC,2445323.708333,28.7317,-95.2428,0109,5.26,10.79,12.0000,26.0000
1982-12-20 05:30:00 UTC,2445323.729167,28.7317,-95.2428,0109,5.82,10.50,12.0000,29.0000
1982-12-20 06:00:00 UTC,2445323.750000,28.7317,-95.2428,0109,7.27,10.78,13.0000,34.0000